• In Portugal
  • List of Countries
  • For 7 days
  • Water Temperature
  • Satellite Maps
  • Weather Map
  • Weather Widgets
  • user-avatar
    Login

    Hourly Weather Vratsa

    Today, 25 September, Tuesday

    Time Temperature Precipitation Wind Pressure Humidity
    00:00 +8°C° 0 mm 5 mps 714 mmHg 63%
    01:00 +7°C° 0 mm 5 mps 714 mmHg 65%
    02:00 +7°C° 0 mm 4 mps 714 mmHg 67%
    03:00 +6°C° 0 mm 4 mps 714 mmHg 69%
    04:00 +6°C° 0 mm 4 mps 715 mmHg 72%
    05:00 +5°C° 0 mm 4 mps 715 mmHg 74%
    06:00 +6°C° 0 mm 4 mps 715 mmHg 69%
    07:00 +6°C° 0 mm 4 mps 716 mmHg 64%
    08:00 +7°C° 0 mm 5 mps 716 mmHg 59%
    09:00 +9°C° 0 mm 5 mps 716 mmHg 50%
    10:00 +10°C° 0 mm 5 mps 716 mmHg 42%
    11:00 +13°C° 0 mm 6 mps 717 mmHg 33%
    12:00 +13°C° 0 mm 6 mps 717 mmHg 31%
    13:00 +14°C° 0 mm 6 mps 716 mmHg 28%
    14:00 +15°C° 0 mm 6 mps 716 mmHg 26%
    15:00 +14°C° 0 mm 6 mps 716 mmHg 27%
    16:00 +14°C° 0 mm 6 mps 716 mmHg 28%
    17:00 +13°C° 0 mm 5 mps 716 mmHg 29%
    18:00 +10°C° 0 mm 5 mps 717 mmHg 34%
    19:00 +8°C° 0 mm 4 mps 717 mmHg 38%
    20:00 +8°C° 0 mm 3 mps 718 mmHg 43%
    21:00 +7°C° 0 mm 3 mps 718 mmHg 45%
    22:00 +6°C° 0 mm 2 mps 719 mmHg 48%
    23:00 +6°C° 0 mm 2 mps 719 mmHg 51%

    Tomorrow, 26 September, Wednesday

    Time Temperature Precipitation Wind Pressure Humidity
    00:00 +5°C° 0 mm 2 mps 719 mmHg 53%
    01:00 +4°C° 0 mm 2 mps 719 mmHg 55%
    02:00 +5°C° 0 mm 1 mps 719 mmHg 57%
    03:00 +5°C° 0 mm 1 mps 719 mmHg 58%
    04:00 +4°C° 0 mm 1 mps 719 mmHg 60%
    05:00 +4°C° 0 mm 1 mps 720 mmHg 61%
    06:00 +5°C° 0 mm 1 mps 720 mmHg 57%
    07:00 +6°C° 0 mm 1 mps 720 mmHg 53%
    08:00 +7°C° 0 mm 1 mps 721 mmHg 50%
    09:00 +9°C° 0 mm 1 mps 721 mmHg 45%
    10:00 +10°C° 0 mm 2 mps 721 mmHg 40%
    11:00 +12°C° 0 mm 2 mps 721 mmHg 35%
    12:00 +12°C° 0 mm 3 mps 721 mmHg 33%
    13:00 +13°C° 0 mm 3 mps 720 mmHg 31%
    14:00 +13°C° 0 mm 3 mps 720 mmHg 29%
    15:00 +13°C° 0 mm 3 mps 720 mmHg 30%
    16:00 +12°C° 0 mm 3 mps 719 mmHg 31%
    17:00 +12°C° 0 mm 3 mps 719 mmHg 32%
    18:00 +10°C° 0 mm 2 mps 719 mmHg 37%
    19:00 +8°C° 0 mm 2 mps 719 mmHg 42%
    20:00 +7°C° 0 mm 1 mps 720 mmHg 47%
    21:00 +7°C° 0 mm 1 mps 720 mmHg 48%
    22:00 +6°C° 0 mm 1 mps 720 mmHg 49%
    23:00 +6°C° 0 mm 1 mps 720 mmHg 50%

    Day after tomorrow, 27 September, Thursday

    Time Temperature Precipitation Wind Pressure Humidity
    00:00 +6°C° 0 mm 1 mps 720 mmHg 50%
    01:00 +5°C° 0 mm 1 mps 720 mmHg 51%
    02:00 +5°C° 0 mm 1 mps 720 mmHg 52%
    03:00 +5°C° 0 mm 1 mps 720 mmHg 53%
    04:00 +4°C° 0 mm 1 mps 719 mmHg 54%
    05:00 +4°C° 0 mm 1 mps 719 mmHg 55%
    06:00 +5°C° 0 mm 1 mps 719 mmHg 51%
    07:00 +7°C° 0 mm 1 mps 719 mmHg 47%
    08:00 +8°C° 0 mm 1 mps 720 mmHg 44%
    09:00 +10°C° 0 mm 1 mps 719 mmHg 39%
    10:00 +10°C° 0 mm 2 mps 719 mmHg 35%
    11:00 +13°C° 0 mm 2 mps 719 mmHg 30%
    12:00 +14°C° 0 mm 2 mps 719 mmHg 29%
    13:00 +14°C° 0 mm 3 mps 718 mmHg 27%
    14:00 +14°C° 0 mm 3 mps 717 mmHg 25%
    15:00 +14°C° 0 mm 3 mps 717 mmHg 26%
    16:00 +15°C° 0 mm 2 mps 716 mmHg 27%
    17:00 +14°C° 0 mm 2 mps 716 mmHg 27%
    18:00 +12°C° 0 mm 2 mps 716 mmHg 32%
    19:00 +10°C° 0 mm 1 mps 716 mmHg 37%
    20:00 +8°C° 0 mm 1 mps 716 mmHg 41%
    21:00 +8°C° 0 mm 1 mps 716 mmHg 42%
    22:00 +7°C° 0 mm 1 mps 715 mmHg 42%
    23:00 +7°C° 0 mm 1 mps 715 mmHg 43%

    28 September, Friday

    Time Temperature Precipitation Wind Pressure Humidity
    00:00 +7°C° 0 mm 1 mps 715 mmHg 43%
    01:00 +7°C° 0 mm 1 mps 715 mmHg 43%
    02:00 +6°C° 0 mm 1 mps 715 mmHg 43%
    03:00 +6°C° 0 mm 1 mps 714 mmHg 43%
    04:00 +7°C° 0 mm 1 mps 714 mmHg 43%
    05:00 +7°C° 0 mm 1 mps 714 mmHg 43%
    06:00 +8°C° 0 mm 1 mps 714 mmHg 41%
    07:00 +9°C° 0 mm 1 mps 714 mmHg 39%
    08:00 +10°C° 0 mm 1 mps 714 mmHg 38%
    09:00 +12°C° 0 mm 1 mps 714 mmHg 34%
    10:00 +14°C° 0 mm 2 mps 714 mmHg 30%
    11:00 +16°C° 0 mm 2 mps 714 mmHg 26%
    12:00 +17°C° 0 mm 3 mps 713 mmHg 25%
    13:00 +18°C° 0 mm 3 mps 713 mmHg 25%
    14:00 +19°C° 0 mm 3 mps 712 mmHg 24%
    15:00 +18°C° 0 mm 3 mps 712 mmHg 26%
    16:00 +18°C° 0 mm 3 mps 711 mmHg 28%
    17:00 +18°C° 0 mm 3 mps 711 mmHg 30%
    18:00 +16°C° 0 mm 2 mps 711 mmHg 34%
    19:00 +13°C° 0 mm 1 mps 710 mmHg 39%
    20:00 +11°C° 0 mm 1 mps 710 mmHg 43%
    21:00 +11°C° 0 mm 1 mps 710 mmHg 44%
    22:00 +11°C° 0 mm 1 mps 710 mmHg 46%
    23:00 +10°C° 0 mm 1 mps 710 mmHg 47%

    29 September, Saturday

    Time Temperature Precipitation Wind Pressure Humidity
    00:00 +10°C° 0 mm 1 mps 710 mmHg 48%
    01:00 +10°C° 0 mm 1 mps 710 mmHg 49%
    02:00 +10°C° 0 mm 1 mps 709 mmHg 51%
    03:00 +9°C° 0 mm 1 mps 709 mmHg 52%
    04:00 +9°C° 0 mm 1 mps 709 mmHg 53%
    05:00 +9°C° 0 mm 1 mps 709 mmHg 55%
    06:00 +10°C° 0 mm 1 mps 709 mmHg 52%
    07:00 +11°C° 0 mm 1 mps 709 mmHg 49%
    08:00 +12°C° 0 mm 1 mps 709 mmHg 46%
    09:00 +14°C° 0 mm 1 mps 710 mmHg 41%
    10:00 +18°C° 0 mm 1 mps 710 mmHg 36%
    11:00 +20°C° 0 mm 1 mps 710 mmHg 32%
    12:00 +20°C° 0 mm 1 mps 710 mmHg 30%
    13:00 +20°C° 0 mm 2 mps 710 mmHg 29%
    14:00 +21°C° 0 mm 2 mps 709 mmHg 28%
    15:00 +20°C° 0 mm 2 mps 709 mmHg 29%
    16:00 +20°C° 0 mm 2 mps 709 mmHg 30%
    17:00 +20°C° 0 mm 2 mps 709 mmHg 32%
    18:00 +19°C° 0 mm 1 mps 709 mmHg 36%
    19:00 +15°C° 0 mm 1 mps 710 mmHg 39%
    20:00 +13°C° 0 mm 1 mps 710 mmHg 43%
    21:00 +13°C° 0 mm 1 mps 710 mmHg 44%
    22:00 +13°C° 0 mm 1 mps 710 mmHg 45%
    23:00 +12°C° 0 mm 1 mps 710 mmHg 46%

    30 September, Sunday

    Time Temperature Precipitation Wind Pressure Humidity
    00:00 +12°C° 0 mm 1 mps 711 mmHg 48%
    01:00 +11°C° 0 mm 1 mps 711 mmHg 49%
    02:00 +11°C° 0 mm 1 mps 711 mmHg 50%
    03:00 +11°C° 0 mm 1 mps 711 mmHg 53%
    04:00 +10°C° 0 mm 1 mps 712 mmHg 56%
    05:00 +10°C° 0 mm 1 mps 712 mmHg 60%
    06:00 +11°C° 0 mm 1 mps 712 mmHg 58%
    07:00 +12°C° 0 mm 1 mps 713 mmHg 56%
    08:00 +13°C° 0 mm 1 mps 713 mmHg 54%
    09:00 +15°C° 0 mm 1 mps 713 mmHg 50%
    10:00 +17°C° 0 mm 2 mps 714 mmHg 46%
    11:00 +19°C° 0 mm 2 mps 714 mmHg 41%
    12:00 +19°C° 0 mm 2 mps 713 mmHg 41%
    13:00 +20°C° 0 mm 3 mps 713 mmHg 40%
    14:00 +21°C° 0 mm 3 mps 713 mmHg 39%
    15:00 +20°C° 0 mm 3 mps 713 mmHg 42%
    16:00 +20°C° 0 mm 3 mps 712 mmHg 44%
    17:00 +19°C° 0 mm 3 mps 712 mmHg 47%
    18:00 +17°C° 0 mm 2 mps 712 mmHg 54%
    19:00 +15°C° 0 mm 2 mps 712 mmHg 61%
    20:00 +14°C° 0 mm 2 mps 712 mmHg 69%
    21:00 +13°C° 0 mm 1 mps 712 mmHg 71%
    22:00 +13°C° 0 mm 1 mps 712 mmHg 72%
    23:00 +12°C° 0 mm 1 mps 712 mmHg 74%
    Show more